FW8715 Weather Reports


time (UTC)temp
C
wind
direction
speed
KPH
gust
KPH
rain 1hr
cm
rain 24hr
cm
rain mn
cm
humidity
%
barometer
mb
20260504032604 10 188 0.0 0.0 0.23 0.51 0.51 90 1015.9
20260504025604 11 179 0.0 0.0 0.05 0.33 0.33 88 1015.9
20260504022606 11 84 0.0 0.0 0.08 0.28 0.28 89 1015.9
20260504012605 11 142 1.6 1.6 0.13 0.23 0.23 85 1016.2
20260504005606 11 172 1.6 1.6 0.18 0.18 0.18 84 1016.2
20260504002605 11 169 6.4 6.4 0.10 0.10 0.10 80 1016.5
20260503235605 14 174 4.8 6.4 0.00 0.00 0.00 63 1016.2
20260503232605 15 177 4.8 4.8 0.00 0.00 0.00 53 1016.2
20260503225606 14 180 3.2 4.8 0.00 0.00 0.00 55 1016.2
20260503215604 13 264 0.0 0.0 0.00 0.00 0.00 61 1016.5
20260503212606 13 180 0.0 0.0 0.00 0.00 0.00 57 1016.5
20260503205606 13 177 1.6 1.6 0.00 0.00 0.00 56 1016.5
20260503202604 13 184 0.0 0.0 0.00 0.00 0.00 54 1016.2
20260503195605 14 182 1.6 1.6 0.00 0.00 0.00 50 1016.2
20260503192606 15 168 1.6 1.6 0.00 0.00 0.00 52 1015.9
20260503185604 16 184 1.6 1.6 0.00 0.00 0.00 57 1015.9
20260503182605 17 172 3.2 3.2 0.00 0.00 0.00 52 1015.5
20260503172605 17 170 4.8 4.8 0.00 0.00 0.00 53 1015.9
20260503072606 14 168 1.6 1.6 0.00 0.00 0.00 55 1017.6
20260503052605 11 162 0.0 0.0 0.00 0.00 0.00 65 1017.2
20260503045604 10 54 0.0 0.0 0.00 0.00 0.00 64 1017.2